M0XDC Weather Reports


time (UTC)temp
F
wind
direction
speed
knots
gust
knots
rain 1hr
in
rain 24hr
in
rain mn
in
humidity
%
barometer
mb
20260506114505 52 14 1.7 5.2 0.00 0.00 0.00 68 1010.8
20260506114433 52 14 1.7 5.2 0.00 0.00 0.00 68 1010.8
20260506113217 51 27 3.5 7.0 0.00 0.00 0.00 72 1010.6
20260506111433 52 23 2.6 7.8 0.00 0.00 0.00 68 1010.7
20260506110003 53 2 1.7 6.1 0.00 0.00 0.00 64 1010.5
20260506104505 53 341 1.7 6.1 0.00 0.00 0.00 65 1010.7
20260506104433 53 343 1.7 7.8 0.00 0.00 0.00 65 1010.7
20260506103004 54 21 1.7 7.8 0.00 0.00 0.00 61 1010.6
20260506101503 54 36 2.6 9.6 0.00 0.00 0.00 62 1010.6
20260506101433 54 32 5.2 9.6 0.00 0.00 0.00 60 1010.7
20260506100218 54 27 2.6 7.0 0.00 0.00 0.00 60 1010.6
20260506094503 52 348 3.5 7.0 0.00 0.00 0.00 64 1010.6
20260506094433 52 337 3.5 7.0 0.00 0.00 0.00 64 1010.7
20260506093003 53 18 2.6 7.0 0.00 0.00 0.00 64 1010.9
20260506091719 53 328 2.6 7.0 0.00 0.00 0.00 61 1010.6
20260506091433 52 330 1.7 7.0 0.00 0.00 0.00 64 1010.8
20260506090004 51 358 2.6 7.0 0.00 0.00 0.00 67 1010.8
20260506084717 51 356 1.7 7.8 0.00 0.00 0.00 68 1010.5
20260506084433 51 11 1.7 9.6 0.00 0.00 0.00 69 1010.5
20260506083003 50 345 3.5 7.0 0.00 0.00 0.00 71 1010.5
20260506081718 49 23 2.6 9.6 0.00 0.00 0.00 72 1010.4
20260506081433 49 9 3.5 9.6 0.00 0.00 0.00 73 1010.7
20260506073003 47 336 1.7 7.8 0.00 0.00 0.00 77 1010.4
20260506071503 47 307 1.7 7.0 0.00 0.00 0.00 77 1010.3
20260506071433 47 315 1.7 7.0 0.00 0.00 0.00 77 1010.4
20260506061720 45 335 0.9 7.0 0.00 0.00 0.00 82 1010.2
20260506061433 44 323 1.7 7.0 0.00 0.00 0.00 83 1010.2
20260506044717 43 353 0.9 5.2 0.00 0.00 0.00 84 1010.0
20260506044433 43 11 0.9 5.2 0.00 0.00 0.00 84 1010.1
20260506043003 43 334 1.7 3.5 0.00 0.00 0.00 84 1009.9
20260506041505 44 308 0.9 3.5 0.00 0.00 0.00 83 1010.1
20260506041433 44 313 0.9 3.5 0.00 0.00 0.00 83 1010.0
20260506040003 44 338 0.9 3.5 0.00 0.00 0.00 83 1009.8
20260506034505 45 17 1.7 5.2 0.00 0.00 0.00 82 1010.0
20260506034433 45 13 0.9 5.2 0.00 0.00 0.00 82 1010.1
20260506033220 45 4 1.7 3.5 0.00 0.00 0.00 82 1010.0
20260506031503 46 347 0.9 3.5 0.00 0.00 0.00 80 1009.8
20260506031433 46 352 0.9 3.5 0.00 0.00 0.00 80 1009.9
20260506030005 46 12 0.9 3.5 0.00 0.00 0.00 79 1010.2
20260506024503 46 16 1.7 3.5 0.00 0.00 0.00 78 1010.4
20260506024433 46 24 0.9 3.5 0.00 0.00 0.00 78 1010.4
20260506021503 47 22 0.9 6.1 0.00 0.00 0.00 79 1010.2
20260506021433 47 21 1.7 6.1 0.00 0.00 0.00 79 1010.4
20260506020004 47 344 1.7 6.1 0.00 0.00 0.00 80 1010.3
20260506014505 47 16 0.0 3.5 0.00 0.00 0.00 82 1010.5
20260506014433 47 13 0.0 3.5 0.00 0.00 0.00 82 1010.5
20260506013005 47 355 1.7 3.5 0.00 0.00 0.00 82 1010.6
20260506011503 47 19 1.7 3.5 0.00 0.00 0.00 82 1010.6
20260506011433 47 20 1.7 3.5 0.00 0.00 0.00 82 1010.4
20260506010005 47 25 0.9 3.5 0.00 0.00 0.00 81 1010.4
20260506004504 47 18 0.9 5.2 0.00 0.00 0.00 82 1010.6
20260506004433 47 20 0.9 5.2 0.00 0.00 0.00 82 1010.6
20260506003005 47 38 0.9 5.2 0.00 0.00 0.00 81 1010.6
20260506001504 47 16 0.9 7.0 0.00 0.00 0.00 81 1010.8
20260506001433 47 15 2.6 7.0 0.00 0.00 0.00 81 1010.6
20260506000005 48 25 1.7 6.1 0.00 0.00 0.00 80 1010.9
20260505234505 48 37 1.7 5.2 0.00 0.00 0.00 81 1010.6
20260505234433 48 33 1.7 5.2 0.00 0.00 0.00 81 1010.7
20260505233005 48 26 1.7 3.5 0.00 0.00 0.00 81 1010.8
20260505231717 48 31 1.7 5.2 0.00 0.00 0.00 81 1010.9
20260505231433 48 26 0.9 5.2 0.00 0.00 0.00 81 1010.9
20260505230218 48 55 0.9 6.1 0.00 0.00 0.00 81 1011.1
20260505224504 49 22 1.7 5.2 0.00 0.00 0.00 80 1010.9
20260505224433 49 22 2.6 5.2 0.00 0.00 0.00 80 1010.8
20260505221505 49 40 1.7 6.1 0.00 0.00 0.00 80 1010.9
20260505221433 49 39 1.7 6.1 0.00 0.00 0.00 80 1011.1
20260505220005 49 35 1.7 6.1 0.00 0.00 0.00 79 1010.9
20260505214504 50 19 2.6 7.0 0.00 0.00 0.00 78 1010.8
20260505214433 50 20 2.6 7.0 0.00 0.00 0.00 78 1010.8
20260505213005 50 30 2.6 7.8 0.00 0.00 0.00 81 1010.8
20260505211503 50 45 1.7 3.5 0.00 0.00 0.00 84 1010.7
20260505211433 50 48 1.7 3.5 0.00 0.00 0.00 84 1010.6
20260505210005 50 46 1.7 3.5 0.00 0.00 0.00 83 1010.9
20260505204503 50 55 2.6 9.6 0.00 0.00 0.00 84 1010.5
20260505204433 50 57 4.3 9.6 0.00 0.00 0.00 84 1010.8
20260505203003 51 70 3.5 7.0 0.00 0.00 0.00 84 1010.6
20260505201503 52 52 3.5 9.6 0.00 0.00 0.00 77 1010.7
20260505201433 52 49 3.5 9.6 0.00 0.00 0.00 77 1010.6
20260505200219 53 35 1.7 5.2 0.00 0.00 0.00 74 1010.3
20260505194505 53 63 0.0 3.5 0.00 0.00 0.00 69 1010.2
20260505194433 53 61 0.0 3.5 0.00 0.00 0.00 69 1010.2
20260505193005 53 44 0.0 1.7 0.00 0.00 0.00 69 1010.0
20260505191720 53 79 0.0 1.7 0.00 0.00 0.00 68 1009.8
20260505191433 53 72 0.9 1.7 0.00 0.00 0.00 68 1009.9
20260505190218 53 67 0.0 1.7 0.00 0.00 0.00 67 1009.6
20260505184503 54 70 0.0 3.5 0.00 0.00 0.00 66 1009.5
20260505184433 54 67 0.0 3.5 0.00 0.00 0.00 66 1009.6
20260505183004 54 63 0.9 5.2 0.00 0.00 0.00 65 1009.4
20260505181719 54 71 1.7 3.5 0.00 0.00 0.00 64 1009.5
20260505181433 54 69 1.7 3.5 0.00 0.00 0.00 65 1009.5
20260505180218 54 95 0.9 1.7 0.00 0.00 0.00 65 1009.6
20260505174503 55 58 0.0 1.7 0.00 0.00 0.00 63 1009.6
20260505174433 55 58 0.0 1.7 0.00 0.00 0.00 63 1009.4
20260505173005 55 71 0.9 1.7 0.00 0.00 0.00 63 1009.3
20260505171505 55 69 0.0 3.5 0.00 0.00 0.00 61 1009.3
20260505171433 55 73 0.0 3.5 0.00 0.00 0.00 62 1009.5
20260505170005 55 81 1.7 3.5 0.00 0.00 0.00 63 1009.6
20260505164505 56 91 1.7 3.5 0.00 0.00 0.00 63 1009.5
20260505164433 56 88 1.7 3.5 0.00 0.00 0.00 63 1009.5
20260505163003 56 61 1.7 7.0 0.00 0.00 0.00 60 1009.4
20260505161718 56 71 1.7 3.5 0.00 0.00 0.00 60 1009.5
20260505161433 56 68 1.7 3.5 0.00 0.00 0.00 61 1009.4
20260505151505 58 68 1.7 7.0 0.00 0.00 0.00 55 1009.7
20260505151433 58 69 1.7 7.8 0.00 0.00 0.00 55 1009.7
20260505124505 60 55 1.7 5.2 0.00 0.00 0.00 52 1010.0
20260505124433 60 58 1.7 5.2 0.00 0.00 0.00 52 1010.0
20260505123005 61 37 2.6 5.2 0.00 0.00 0.00 53 1010.0
20260505121503 62 76 1.7 9.6 0.00 0.00 0.00 48 1009.9
20260505121433 62 72 2.6 9.6 0.00 0.00 0.00 48 1009.9
20260505120005 62 42 1.7 3.5 0.00 0.00 0.00 52 1009.9